AirNav   Pilot Hours Calculator
 
 995 users online  

N27 Bradford County Airport
Towanda, Pennsylvania, USA

GOING TO TOWANDA?


FAA INFORMATION EFFECTIVE 04 NOVEMBER 2021

Location

FAA Identifier: N27
Lat/Long: 41-44-24.0000N 076-26-49.7000W
41-44.400000N 076-26.828333W
41.7400000,-76.4471389
(estimated)
Elevation: 730.3 ft. / 222.6 m (surveyed)
Variation: 12W (2000)
From city: 2 miles S of TOWANDA, PA
Time zone: UTC -4 (UTC -5 during Standard Time)
Zip code: 18848

Airport Operations

Airport use: Open to the public
Activation date: 07/1938
Control tower: no
ARTCC: NEW YORK CENTER
FSS: WILLIAMSPORT FLIGHT SERVICE STATION
NOTAMs facility: IPT (NOTAM-D service available)
Attendance: M-F 0800-1700, MAR-OCT SAT-SUN 0800-1600, NOV-FEB SAT-SUN UNATTENDED
FOR SVC AFT HRS CALL 570-637-4902.
Wind indicator: lighted
Segmented circle: yes
Lights: ACTVT REIL RWY 05 & 23; PAPI RWY 05 & 23; MIRL RWY 05/23 - CTAF.
Beacon: white-green (lighted land airport)
Operates sunset to sunrise.

Airport Communications

CTAF/UNICOM: 123.0
WX AWOS-3: 119.925 (570-265-1024)
BINGHAMTON APPROACH: 118.6
BINGHAMTON DEPARTURE: 118.6
  • APCH/DEP SVC PRVDD BY NEW YORK ARTCC ON FREQS 132.175/298.9 (ELK MOUNTAIN RCAG) WHEN BINGHAMTON APCH CTL CLSD.

Nearby radio navigation aids

VOR radial/distance  VOR name  Freq  Var
FQMr040/28.2WILLIAMSPORT VOR/DME114.4009W
CFBr219/28.6BINGHAMTON VOR/DME112.2010W
ULWr141/33.4ELMIRA VOR/DME109.6512W

 
NDB name  Hdg/Dist  Freq  Var  ID
ALPINE167/33.124512WALP .- .-.. .--.

Airport Services

Fuel available: 100LL JET-A
Parking: hangars and tiedowns
Airframe service: MAJOR
Powerplant service: MAJOR
Bottled oxygen: NONE
Bulk oxygen: NONE

Runway Information

Runway 5/23

Dimensions: 4301 x 75 ft. / 1311 x 23 m
Surface: asphalt, in fair condition
Weight bearing capacity: 
Single wheel: 12.0
Runway edge lights: medium intensity
RUNWAY 5  RUNWAY 23
Latitude: 41-44.110687N41-44.690593N
Longitude: 076-27.099407W076-26.556652W
Elevation: 730.2 ft.713.5 ft.
Traffic pattern: leftleft
Runway heading: 047 magnetic, 035 true227 magnetic, 215 true
Markings: nonprecision, in fair conditionnonprecision, in fair condition
Visual slope indicator: 2-light PAPI on left (3.00 degrees glide path)2-light PAPI on left (3.00 degrees glide path)
Runway end identifier lights: yesyes
Touchdown point: yes, no lightsyes, no lights
Obstructions: 54 ft. trees, 1212 ft. from runway, 151 ft. right of centerline, 18:1 slope to clearnone

Airport Ownership and Management from official FAA records

Ownership: Publicly-owned
Owner: BRADFORD COUNTY AIRPORT AUTHORITY
415 AIRPORT RD.
TOWANDA, PA 18848
Phone 570-265-4900
Manager: SCOTT HAUSER
415 AIRPORT RD.
TOWANDA, PA 18848
Phone 570-265-4900

Airport Operational Statistics

Aircraft based on the field: 29
Single engine airplanes: 27
Multi engine airplanes: 2
    
Aircraft operations: avg 63/day *
65% transient general aviation
35% local general aviation
<1% military
* for 12-month period ending 18 August 2020

Additional Remarks

FOR CD CTC NEW YORK ARTCC AT 631-468-1425.

Instrument Procedures

NOTE: All procedures below are presented as PDF files. If you need a reader for these files, you should download the free Adobe Reader.

NOT FOR NAVIGATION. Please procure official charts for flight.
FAA instrument procedures published for use from 04 November 2021 at 0901Z to 02 December 2021 at 0900z.

 
IAPs - Instrument Approach Procedures
RNAV (GPS) RWY 23   download (203KB)
RNAV (GPS)-A   download (186KB)
NOTE: Special Take-Off Minimums/Departure Procedures apply   download (283KB)

Other nearby airports with instrument procedures:

KCZG - Tri-Cities Airport (26 nm NE)
KELM - Elmira/Corning Regional Airport (32 nm NW)
9N3 - Seamans Field Airport (32 nm E)
KBGM - Greater Binghamton Airport/Edwin A Link Field (35 nm NE)
KIPT - Williamsport Regional Airport (37 nm SW)
 
Loc | Ops | Rwys | IFR | FBO | Links
Com | Nav | Svcs | Stats | Notes
Area around N27 (Bradford County Airport)
 
Road maps at: MapQuest Bing Google
 
Aerial photo
WARNING: Photo may not be current or correct
Aerial photo of N27 (Bradford County Airport)
looking southwest

Do you have a better or more recent aerial photo of Bradford County Airport that you would like to share? If so, please send us your photo.

 
Sectional chart

 
Airport distance calculator
Flying to Bradford County Airport? Find the distance to fly.

From to N27

Sunrise and sunset
Times for 01-Dec-2021
 Local
(UTC-5)
 Zulu
(UTC)
Morning civil twilight06:4311:43
Sunrise07:1412:14
Sunset16:3521:35
Evening civil twilight17:0622:06

Current date and time
Zulu (UTC)  02-Dec-2021 02:15:47
Local (UTC-5)  01-Dec-2021 21:15:47
 
METAR
KELM 
32nm NW 
020153Z 09004KT 10SM OVC065 03/M02 A3001 RMK AO2 SLP168 T00331022
KBGM 
35nm NE 
020153Z 14004KT 10SM BKN065 OVC100 01/M03 A3001 RMK AO2 SLP178 T00061033
KIPT 
36nm SW 
020154Z 10005KT 10SM OVC050 03/M01 A3004 RMK AO2 RAB31E53 SLP177 P0001 T00331006
KAVP 
40nm SE 
020154Z 00000KT 10SM OVC075 03/M02 A3006 RMK AO2 SLP184 T00331022
KN38 
43nm W 
020155Z AUTO 19007KT 10SM FEW022 SCT027 BKN036 01/M03 A2996 RMK AO2
KITH 
44nm N 
020156Z 12006KT 10SM FEW070 OVC110 02/M03 A3000 RMK AO2 SLP170 T00221033
KHZL 
50nm SE 
020155Z AUTO 13004KT 10SM OVC055 04/M02 A3006 RMK AO2
TAF
KELM 
32nm NW 
011740Z 0118/0218 26006KT P6SM SCT070 FM020200 18006G11KT 5SM -SHSN BKN035 FM020300 18006G12KT 4SM -SHRASN BR BKN012 FM020500 18007G12KT 5SM -SHRA BR OVC015 FM021100 20007G14KT P6SM OVC011
KBGM 
35nm NE 
011740Z 0118/0218 28007KT P6SM SCT080 FM020400 17006G11KT 3SM -SN BKN025 FM020600 18010KT 3SM -SHRASN BR OVC006 FM021100 19010G17KT P6SM BKN008 FM021700 21012G25KT P6SM -SHRA OVC015
KIPT 
36nm SW 
012128Z 0121/0218 09004KT P6SM BKN150 FM012200 11005KT P6SM BKN100 FM020200 10006KT 5SM -SHRA OVC025 WS020/22035KT FM021600 20010G20KT P6SM BKN040
NOTAMs
Click for the latest NOTAMs
NOTAMs are issued by the DoD/FAA and will open in a separate window not controlled by AirNav.

 

 
 

FBO, Fuel Providers, and Aircraft Ground Support

  
 Business Name 
 
 Contact 
 
 Services / Description 
 
Fuel Prices
 
Comments
  
 Bradford County Airport Authority
570-265-4900
[web site]
[email]
Airport management, Aviation fuel, Oxygen service, Aircraft parking (ramp or tiedown), Aircraft maintenance, Aircraft cleaning / washing / detailing, Pilot supplies, ...

More info about Bradford County Airport Authority
Phillips 66
100LL Jet A
FS --- $3.85 
SS $4.65 $3.65 
 Updated 15-Nov-2021
 
   write
FS=Full service
SS=Self service
Update Fuel Prices
 

Would you like to see your business listed on this page?

 If your business provides an interesting product or service to pilots, flight crews, aircraft, or users of the Bradford County Airport, you should consider listing it here.  To start the listing process, click on the button below
 
Add a business
 

Other Pages about Bradford County Airport

bradfordcountyairport.com
 
Update a link
 
Copyright © AirNav, LLC. All rights reserved. Privacy Policy  Contact